TimeCDT,TemperatureF,Dew PointF,Humidity,Sea Level PressureIn,VisibilityMPH,Wind Direction,Wind SpeedMPH,Gust SpeedMPH,PrecipitationIn,Events,Conditions,WindDirDegrees,DateUTC
12:56 AM,37.0,36.0,96,30.00,-9999.0,Calm,Calm,-,N/A,,Unknown,0,2013-09-21 05:56:00
1:56 AM,37.9,37.0,97,30.01,-9999.0,WNW,3.5,-,N/A,,Unknown,290,2013-09-21 06:56:00
2:56 AM,36.0,35.1,97,30.01,-9999.0,Calm,Calm,-,N/A,,Unknown,0,2013-09-21 07:56:00
3:56 AM,35.1,34.0,96,30.00,-9999.0,Calm,Calm,-,N/A,,Unknown,0,2013-09-21 08:56:00
4:56 AM,36.0,35.1,97,30.00,-9999.0,NW,3.5,-,N/A,,Unknown,320,2013-09-21 09:56:00
5:56 AM,34.0,33.1,96,30.01,-9999.0,Calm,Calm,-,N/A,,Unknown,0,2013-09-21 10:56:00
6:56 AM,33.1,32.0,96,30.01,-9999.0,Calm,Calm,-,N/A,,Unknown,0,2013-09-21 11:56:00
7:56 AM,37.9,37.0,97,30.04,-9999.0,Calm,Calm,-,N/A,,Unknown,0,2013-09-21 12:56:00
8:56 AM,46.9,44.1,90,30.03,-9999.0,Calm,Calm,-,N/A,,Unknown,0,2013-09-21 13:56:00
9:56 AM,52.0,46.0,80,30.03,-9999.0,SSE,3.5,-,N/A,,Unknown,160,2013-09-21 14:56:00
10:56 AM,55.0,45.0,69,30.02,-9999.0,ESE,3.5,-,N/A,,Unknown,110,2013-09-21 15:56:00
11:56 AM,57.9,44.1,60,30.00,-9999.0,SE,9.2,-,N/A,,Unknown,140,2013-09-21 16:56:00
12:56 PM,61.0,43.0,52,29.98,-9999.0,SSE,4.6,-,N/A,,Unknown,160,2013-09-21 17:56:00
1:56 PM,63.0,44.1,50,29.94,-9999.0,Calm,Calm,-,N/A,,Unknown,0,2013-09-21 18:56:00
2:56 PM,64.9,42.1,43,29.92,-9999.0,Variable,4.6,-,N/A,,Unknown,0,2013-09-21 19:56:00
3:56 PM,66.9,42.1,40,29.89,-9999.0,Variable,3.5,-,N/A,,Unknown,0,2013-09-21 20:56:00
4:56 PM,66.9,39.0,36,29.87,-9999.0,SE,5.8,-,N/A,,Unknown,140,2013-09-21 21:56:00
5:56 PM,66.0,41.0,40,29.86,-9999.0,SE,8.1,-,N/A,,Unknown,140,2013-09-21 22:56:00
6:56 PM,63.0,42.1,46,29.86,-9999.0,SE,5.8,-,N/A,,Unknown,140,2013-09-21 23:56:00
7:56 PM,54.0,44.1,69,29.86,-9999.0,SE,5.8,-,N/A,,Unknown,130,2013-09-22 00:56:00
8:56 PM,50.0,44.1,80,29.87,-9999.0,South,3.5,-,N/A,,Unknown,170,2013-09-22 01:56:00
9:56 PM,46.9,43.0,86,29.87,-9999.0,South,3.5,-,N/A,,Unknown,180,2013-09-22 02:56:00
10:56 PM,46.9,44.1,90,29.87,-9999.0,South,5.8,-,N/A,,Unknown,180,2013-09-22 03:56:00
11:56 PM,45.0,43.0,93,29.86,-9999.0,South,3.5,-,N/A,,Unknown,180,2013-09-22 04:56:00